Location: *
(10.8352°N, 4.6204°W)
Time: 12:02:34
(UTC+00:00)

Daily predictions for brighter satellites

Satellite Brightness Start Highest point End
(mag) Time Altitude Azimuth Time Altitude Azimuth Time Altitude Azimuth
Cosmos 2098 Rocket 4.4 18:24:16 10° N 18:31:44 72° E 18:38:34 10° S
Timation 2 Rocket 4.3 18:27:53 10° SSW 18:34:44 87° WNW 18:41:22 10° NNE
CSL-04 Rocket 4.4 18:32:03 10° SE 18:36:50 33° ENE 18:41:40 10° NNE
Cosmos 1066 Rocket 4.4 18:31:50 10° N 18:37:09 50° E 18:42:35 10° SSE
APEX 3.1 18:37:12 10° N 18:39:43 30° ENE 18:42:08 10° SE
YAOGAN 1 3.1 18:43:25 10° SE 18:47:26 38° ENE 18:51:26 10° N
SAR-Lupe-2 4.4 18:45:04 10° NE 18:48:07 27° E 18:51:12 10° SSE
Cosmos 494 Rocket 4.2 18:47:27 10° N 18:52:29 48° ENE 18:57:32 10° SSE
Mugunghwa Rocket 4.2 18:46:20 10° WSW 18:52:38 71° NNW 18:58:59 10° ENE
YAOGAN 6 2.6 18:50:55 10° SSE 18:54:24 55° ENE 18:57:55 10° N
Meteor 1-12 Rocket 4.4 18:51:15 10° S 18:56:57 54° E 19:02:33 10° NNE
Lacrosse 5 rocket 2.1 18:54:49 10° S 18:57:47 24° ESE 19:00:02 14° ENE
Ariane 44LP R/B 4.4 18:49:05 10° W 19:02:29 37° SSW 19:05:38 12° SE
Cosmos 2322 Rocket 2.3 18:57:09 10° N 19:02:37 54° ENE 19:08:05 10° SSE
CZ-2D R/B 4.1 19:02:42 10° SE 19:06:02 29° ENE 19:09:20 10° NNE
Cosmos 1025 Rocket 4.4 19:03:20 10° NE 19:05:54 17° E 19:05:54 17° E
Cosmos 2151 Rocket 4.0 19:01:46 10° SSW 19:06:10 66° W 19:10:32 10° N
CZ-2C R/B 3.9 19:04:17 10° NNE 19:08:29 44° ESE 19:12:41 10° S
ASTEX 1 4.3 19:04:44 10° NE 19:08:39 24° E 19:12:34 10° SSE
GPS 2-17 Rocket1 3.7 19:05:36 10° W 19:09:46 44° NNW 19:13:02 15° NE
USA 32 4.2 19:05:23 10° NNE 19:10:23 47° E 19:15:24 10° SSE
Ariane Rocket 3.6 19:07:03 10° SE 19:11:32 33° ENE 19:15:59 10° NNE
Cosmos 1709 Rocket 4.4 19:05:23 10° N 19:11:39 70° W 19:18:00 10° S
Cosmos 2056 Rocket 4.4 19:10:43 10° SSE 19:15:11 27° E 19:19:40 10° NE
Cosmos 1378 3.9 19:12:01 10° NNE 19:15:18 29° E 19:15:53 27° ESE
ISS -2.6 19:15:32 10° SW 19:18:42 42° NW 19:21:50 10° NNE
Cosmos 1269 Rocket 4.0 19:14:38 10° NNW 19:19:55 87° W 19:25:14 10° S
Centaur D-1A AC-31 3.0 19:15:24 10° SSW 19:20:08 18° S 19:21:31 16° SE
SWIFT 2.8 19:17:07 10° WNW 19:21:10 46° NNE 19:22:48 30° ENE
Cosmos 2219 3.1 19:19:33 10° S 19:25:13 67° ESE 19:30:55 10° NNE
GPS 2-18 Rocket1 3.8 19:22:02 10° W 19:25:36 43° SSW 19:26:58 29° SSE
Shi Jian 4 3.3 19:23:53 10° WSW 19:25:59 61° NNW 19:26:08 58° N
Cosmos 1624 Rocket 4.4 19:22:59 10° S 19:27:49 38° E 19:32:37 10° NNE
Cosmos 2227 Rocket 2.7 19:23:06 10° SSE 19:28:08 34° ESE 19:30:07 27° ENE
Lacrosse 4 Rocket 1.4 19:24:50 10° N 19:28:44 49° ENE 19:29:34 42° ESE
ARIANE 44L R/B 4.2 19:01:32 10° WSW 19:28:56 49° S 19:31:39 27° SE
ASC 2 Rocket 4.1 19:21:57 10° WSW 19:29:57 62° SSE 19:32:30 33° E
Okean 2 3.9 19:26:14 10° NNW 19:30:16 61° W 19:34:20 10° S
Cosmos 2074 Rocket 3.9 19:26:57 10° N 19:33:03 59° E 19:39:08 10° SSE
ARIANE 5 DEB (SYLDA) 4.1 19:27:57 10° W 19:33:23 40° S 19:34:40 30° SE
USA 267 4.3 19:34:03 24° SE 19:34:03 24° SE 19:38:40 10° S
Cosmos 2360 Rocket 2.4 19:29:17 10° N 19:34:42 47° ENE 19:36:37 34° ESE
Meteor 1-21 4.3 19:29:43 10° N 19:35:10 52° E 19:39:53 14° SSE
CZ-4 R/B 3.8 19:34:39 10° SSW 19:37:40 22° W 19:40:42 10° NW
Cosmos 2297 Rocket 2.3 19:33:57 10° S 19:39:22 49° ESE 19:42:49 22° NE
Cosmos 1842 3.1 19:39:10 10° N 19:42:50 68° NE 19:42:50 68° NE
deb Ariane 3.7 19:43:28 10° WSW 19:46:18 44° SSE 19:46:44 43° SE
Skynet4D Del rocket 4.4 19:39:19 10° WNW 19:46:46 78° SSW 19:50:32 35° SE
SL-16 R/B 3.8 19:47:13 10° NW 19:52:17 35° WSW 19:57:22 10° SSW
Cosmos 2154 Rocket 4.2 19:47:17 10° NNE 19:52:37 46° ENE 19:52:37 46° ENE
Okean 1 Rocket 4.3 19:50:06 10° SSW 19:54:09 40° W 19:58:13 10° NNW
Cosmos 1371 Rocket 4.1 19:52:38 10° SSW 19:57:51 75° WNW 20:03:07 10° N
Aurora 2 Rocket 4.3 19:51:41 10° WSW 20:01:36 66° NNW 20:04:53 38° NE
COSMOS 2455 4.1 20:02:31 10° N 20:05:25 26° NNE 20:05:25 26° NNE
BREEZE-M DEB (TANK) 3.8 19:55:17 10° SW 20:08:48 85° SE 20:09:18 75° ENE
Cosmos 2184 Rocket 4.4 20:02:39 10° NNW 20:08:49 63° W 20:15:04 10° S
Sylda 5 3.8 20:09:22 10° WSW 20:11:06 22° SW 20:11:06 22° SW
Cosmos 2333 Rocket 4.5 20:08:08 10° NNE 20:08:28 11° NNE 20:08:28 11° NNE
Centaur D-1AR AC-41 3.7 20:06:12 10° WSW 20:15:10 53° S 20:15:10 53° S
CZ-3B R/B 4.4 19:33:47 10° WNW 20:15:49 72° SSW 20:20:13 44° SE
MOS 1 4.3 20:16:49 77° SW 20:17:02 79° WSW 20:22:43 10° NNW
ADEOS Rocket 3.8 20:19:54 10° N 20:27:29 67° WNW 20:35:10 10° SSW
Lacrosse 5 rocket 4.5 20:35:43 10° WNW 20:35:49 10° WNW 20:35:49 10° WNW
